Location: Bois de la Silve
(44.4667°N, 6.7833°E)
Time: 00:14:35
(UTC+00:00)

USA 238 DEB - Pass Details

Date: 29 October 2020
Orbit: 1001 x 1211 km, 63.5° (Epoch: 22 November)

Event Time Altitude Azimuth Distance (km) Brightness Sun altitude
Exits shadow 05:32:52 - 301° (WNW) 3,242 5.6 -6.6°
Reaches altitude 10° 05:34:27 10° 311° (NW) 2,895 5.4 -6.4°
Maximum altitude 05:38:43 17° 350° (N) 2,464 5.4 -5.6°
Drops below altitude 10° 05:43:07 10° 29° (NNE) 2,993 6.3 -4.9°
Sets 05:47:05 0° 49° (NE) 3,997 7.2 -4.2°
